sat.trackr.live / text

‹ back to catalog

QIANFAN-132

NORAD 69078 · 2026-104F

PAYLOAD ACTIVE UNKNOWN

§ Identity

Operator
Country
PRC
Launch date
2026-05-12
Launch site
TAISC
Launch vehicle
Mass (kg)
RCS (m²)

External: N2YO · Heavens-Above · Gunter

§ Orbital elements

Epoch: 2026-05-25T04:55:54.286752Z

Period
101.54 min
Inclination
88.9868°
Eccentricity
0.0003684
Mean motion
14.18144245 rev/d
Perigee alt
829.0 km
Apogee alt
834.3 km
Semi-major
7,209.8 km
B*
3.2385e-5
RAAN
344.2496°
Arg perigee
159.9314°
Mean anomaly
200.2021°
Rev number
182

§ Raw data

QIANFAN-1321 69078U 26104F   26145.20548943  .00000081  00000+0  32385-4 0  99992 69078  88.9868 344.2496 0003684 159.9314 200.2021 14.18144245  1826

JSON: /api/v1/satellites/69078 · /tle

For live sub-satellite position, see the globe view (requires WebGL).

§ Visibility from observer

Set your observer location to see the next 7 days of passes ≥ 10°. The values pass through the URL so the page stays shareable.

No JS? Fill the form by hand. The geolocation button needs JavaScript.